Training

Spin Video     https://www.youtube.com/watch?v=Vj8vdWBMePM&list=UULpWoZCi_X3hPwW6J_RsFEg     … [Read More...]

Weather

METAR FOR KCHA (Issued: Sun, December 21st 2014 4:53 PM UTC):
KCHA 211653Z 01006KT 10SM BKN015 OVC026 06/01 A3022 RMK AO2 SLP236 T00610006

Accomplishments

Marvin Mueller

Congratulations to Marvin Mueller our newest private pilot. Marvin passed his check ride on Friday March 8th. … [Read More...]

Congrats to Randy Sexton

Congratulations to Randy Sexton on becoming our newest Private Pilot at Hixson Aviation. Randy completed his checkride on Monday, March 4, 2013. … [Read More...]

Dallas Bay Skypark - 1A0